Weather History for Gunnison, CO

Change the Weather History Date:

Sunday, June 30, 2013

  Actual Average Record
Temperature  
Mean Temperature 63 °F -  
Max Temperature 82 °F 76 °F 87 °F (1998)
Min Temperature 44 °F 41 °F 37 °F (1997)
Degree Days  
Heating Degree Days 2    
Growing Degree Days 13 (Base 50)    
Moisture  
Dew Point 41 °F    
Average Humidity 48    
Maximum Humidity 82    
Minimum Humidity 19    
Precipitation  
Precipitation 0.00 in - - ()
Sea Level Pressure  
Sea Level Pressure 30.38 in    
Wind  
Wind Speed 5 mph (North)    
Max Wind Speed 24 mph    
Max Gust Speed 33 mph    
Visibility 10 miles    
Events Thunderstorm    
Averages and records for this station are not official NWS values.
T = Trace of Precipitation, MM = Missing Value Source: NWS Daily Summary

Daily Weather History Graph

Daily Weather History Graph

Search for Another Location

Airport:

Trip Planner

Search our weather history database for the weather conditions in past years. The results will help you decide how hot, cold, wet, or windy it might be!

Date:

Astronomy

Jun. 30, 2013 Rise Set
Actual Time 5:46 AM MDT 8:35 PM MDT
Civil Twilight 5:15 AM MDT 9:07 PM MDT
Nautical Twilight 4:35 AM MDT 9:47 PM MDT
Astronomical Twilight 3:49 AM MDT 10:32 PM MDT
Moon 12:43 AM MDT (6/30) 1:56 PM MDT (6/30)
Length of Visible Light 15h 52m
Length of Day
14h 49m
Last Quarter, 45% of the Moon is Illuminated
Jun 30
Last Quarter
Jul 8
New
Jul 15
First Quarter
Jul 22
Full
Jul 29
Last Quarter

Hourly Weather History & Observations

Time (MDT) Temp. Dew Point Humidity Pressure Visibility Wind Dir Wind Speed Gust Speed Precip Events Conditions
12:15 AM 57.2 °F 44.6 °F 63% 30.44 in 10.0 mi NE 4.6 mph - N/A   Clear
12:35 AM 57.2 °F 42.8 °F 59% 30.43 in 10.0 mi Calm Calm - N/A   Clear
12:55 AM 53.6 °F 42.8 °F 67% 30.43 in 10.0 mi Calm Calm - N/A   Clear
1:15 AM 55.4 °F 44.6 °F 67% 30.43 in 10.0 mi Calm Calm - N/A   Clear
1:35 AM 53.6 °F 42.8 °F 67% 30.43 in 10.0 mi SSE 3.5 mph - N/A   Clear
1:55 AM 51.8 °F 42.8 °F 71% 30.44 in 10.0 mi Calm Calm - N/A   Clear
2:15 AM 51.8 °F 42.8 °F 71% 30.43 in 10.0 mi NNW 3.5 mph - N/A   Clear
2:35 AM 51.8 °F 42.8 °F 71% 30.42 in 10.0 mi Calm Calm - N/A   Mostly Cloudy
2:55 AM 51.8 °F 42.8 °F 71% 30.42 in 10.0 mi Calm Calm - N/A   Mostly Cloudy
3:15 AM 51.8 °F 42.8 °F 71% 30.42 in 10.0 mi Calm Calm - N/A   Partly Cloudy
3:35 AM 50.0 °F 39.2 °F 66% 30.43 in 10.0 mi Calm Calm - N/A   Clear
3:55 AM 50.0 °F 42.8 °F 76% 30.42 in 10.0 mi Calm Calm - N/A   Clear
4:15 AM 50.0 °F 42.8 °F 76% 30.42 in 10.0 mi Calm Calm - N/A   Clear
4:35 AM 48.2 °F 41.0 °F 76% 30.42 in 10.0 mi Calm Calm - N/A   Clear
4:55 AM 48.2 °F 42.8 °F 82% 30.43 in 10.0 mi Calm Calm - N/A   Clear
5:15 AM 46.4 °F 39.2 °F 76% 30.43 in 10.0 mi Calm Calm - N/A   Clear
5:35 AM 48.2 °F 39.2 °F 71% 30.44 in 10.0 mi Calm Calm - N/A   Clear
5:55 AM 48.2 °F 41.0 °F 76% 30.45 in 10.0 mi Calm Calm - N/A   Clear
6:15 AM 44.6 °F 39.2 °F 81% 30.44 in 10.0 mi Calm Calm - N/A   Clear
6:55 AM 48.2 °F 41.0 °F 76% 30.45 in 10.0 mi Calm Calm - N/A   Clear
7:15 AM 50.0 °F 41.0 °F 71% 30.45 in 10.0 mi ENE 3.5 mph - N/A   Clear
7:35 AM 51.8 °F 41.0 °F 67% 30.45 in 10.0 mi Calm Calm - N/A   Clear
7:55 AM 53.6 °F 41.0 °F 62% 30.45 in 10.0 mi Calm Calm - N/A   Clear
8:15 AM 55.4 °F 42.8 °F 63% 30.45 in 10.0 mi Calm Calm - N/A   Clear
8:35 AM 55.4 °F 42.8 °F 63% 30.45 in 10.0 mi Calm Calm - N/A   Clear
8:55 AM 57.2 °F 42.8 °F 59% 30.45 in 10.0 mi Calm Calm - N/A   Clear
9:15 AM 59.0 °F 42.8 °F 55% 30.44 in 10.0 mi Calm Calm - N/A   Clear
9:35 AM 62.6 °F 42.8 °F 48% 30.43 in 10.0 mi Calm Calm - N/A   Clear
9:55 AM 62.6 °F 42.8 °F 48% 30.43 in 10.0 mi Calm Calm - N/A   Clear
10:15 AM 64.4 °F 42.8 °F 45% 30.42 in 10.0 mi Calm Calm - N/A   Clear
10:35 AM 66.2 °F 42.8 °F 43% 30.41 in 10.0 mi SW 3.5 mph - N/A   Clear
10:55 AM 66.2 °F 42.8 °F 43% 30.40 in 10.0 mi WSW 3.5 mph - N/A   Clear
11:15 AM 69.8 °F 44.6 °F 40% 30.39 in 10.0 mi Calm Calm - N/A   Clear
11:35 AM 71.6 °F 44.6 °F 38% 30.38 in 10.0 mi West 5.8 mph - N/A   Clear
11:55 AM 73.4 °F 44.6 °F 36% 30.36 in 10.0 mi WSW 5.8 mph - N/A   Clear
12:15 PM 77.0 °F 44.6 °F 32% 30.35 in 10.0 mi SW 10.4 mph - N/A   Clear
12:35 PM 78.8 °F 44.6 °F 30% 30.34 in 10.0 mi WSW 8.1 mph - N/A   Scattered Clouds
12:55 PM 78.8 °F 42.8 °F 28% 30.33 in 10.0 mi SSW 6.9 mph - N/A   Partly Cloudy
1:15 PM 78.8 °F 41.0 °F 26% 30.33 in 10.0 mi WNW 4.6 mph - N/A   Mostly Cloudy
1:35 PM 80.6 °F 39.2 °F 23% 30.31 in 10.0 mi North 13.8 mph 21.9 mph N/A   Partly Cloudy
1:55 PM 82.4 °F 37.4 °F 20% 30.30 in 10.0 mi NNW 13.8 mph 21.9 mph N/A   Partly Cloudy
2:15 PM 82.4 °F 37.4 °F 20% 30.29 in 10.0 mi NNW 17.3 mph 25.3 mph N/A   Partly Cloudy
2:35 PM 82.4 °F 35.6 °F 19% 30.28 in 10.0 mi North 17.3 mph 25.3 mph N/A   Clear
2:55 PM 82.4 °F 37.4 °F 20% 30.28 in 10.0 mi NNW 12.7 mph 26.5 mph N/A   Clear
3:15 PM 82.4 °F 35.6 °F 19% 30.28 in 10.0 mi North 24.2 mph 28.8 mph N/A   Clear
3:35 PM 78.8 °F 37.4 °F 23% 30.29 in 10.0 mi North 18.4 mph 27.6 mph N/A   Clear
3:55 PM 78.8 °F 37.4 °F 23% 30.29 in 10.0 mi North 13.8 mph 23.0 mph N/A   Clear
4:15 PM 80.6 °F 37.4 °F 21% 30.27 in 10.0 mi North 15.0 mph 20.7 mph N/A   Clear
4:35 PM 82.4 °F 37.4 °F 20% 30.27 in 10.0 mi North 15.0 mph 21.9 mph N/A   Clear
4:55 PM 82.4 °F 35.6 °F 19% 30.27 in 10.0 mi NNW 16.1 mph 21.9 mph N/A Thunderstorm Thunderstorm
5:15 PM 78.8 °F 39.2 °F 24% 30.29 in 10.0 mi NE 19.6 mph 26.5 mph N/A   Scattered Clouds
5:35 PM 77.0 °F 35.6 °F 22% 30.29 in 10.0 mi NNE 21.9 mph 33.4 mph N/A   Scattered Clouds
5:55 PM 78.8 °F 37.4 °F 23% 30.29 in 10.0 mi NE 15.0 mph 19.6 mph N/A   Clear
6:15 PM 73.4 °F 39.2 °F 29% 30.31 in 10.0 mi ESE 24.2 mph 32.2 mph N/A   Clear
6:35 PM 68.0 °F 44.6 °F 43% 30.31 in 10.0 mi ESE 19.6 mph 31.1 mph N/A   Clear
6:55 PM 69.8 °F 42.8 °F 38% 30.33 in 10.0 mi ESE 18.4 mph 26.5 mph N/A   Partly Cloudy
7:15 PM 69.8 °F 42.8 °F 38% 30.34 in 10.0 mi ESE 21.9 mph 31.1 mph N/A   Partly Cloudy
7:35 PM 69.8 °F 41.0 °F 35% 30.34 in 10.0 mi ESE 20.7 mph 26.5 mph N/A   Mostly Cloudy
7:55 PM 68.0 °F 41.0 °F 37% 30.34 in 10.0 mi ESE 17.3 mph 24.2 mph N/A   Partly Cloudy
8:15 PM 68.0 °F 39.2 °F 35% 30.35 in 10.0 mi Calm Calm - N/A   Clear
8:35 PM 66.2 °F 41.0 °F 40% 30.36 in 10.0 mi NNW 3.5 mph - N/A   Clear
8:55 PM 66.2 °F 42.8 °F 43% 30.37 in 10.0 mi North 5.8 mph - N/A   Clear
9:15 PM 66.2 °F 42.8 °F 43% 30.38 in 10.0 mi Calm Calm - N/A   Clear
9:35 PM 62.6 °F 44.6 °F 52% 30.38 in 10.0 mi North 5.8 mph - N/A   Clear
9:55 PM 60.8 °F 44.6 °F 55% 30.40 in 10.0 mi Calm Calm - N/A   Partly Cloudy
10:15 PM 60.8 °F 44.6 °F 55% 30.41 in 10.0 mi ENE 4.6 mph - N/A   Mostly Cloudy
10:35 PM 62.6 °F 42.8 °F 48% 30.42 in 10.0 mi NE 6.9 mph - N/A   Mostly Cloudy
10:55 PM 60.8 °F 44.6 °F 55% 30.43 in 10.0 mi Calm Calm - N/A   Scattered Clouds
11:15 PM 60.8 °F 42.8 °F 52% 30.43 in 10.0 mi North 6.9 mph - N/A   Partly Cloudy
11:35 PM 60.8 °F 42.8 °F 52% 30.43 in 10.0 mi NNW 8.1 mph - N/A   Clear
11:55 PM 60.8 °F 41.0 °F 48% 30.44 in 10.0 mi NE 11.5 mph - N/A   Clear